Regional Weather Roundup
Issued by NWS

Home | Current Version | Previous Version | Graphics & Text | Print | Product List | Glossary Off
Versions: 1 2 3 4 5 6 7 8 9 10 11 12 13 14 15 16 17 18 19 20 21 22 23 24 25 26 27 28 29 30 31 32 33 34 35 36 37 38 39 40 41 42 43 44 45 46 47 48 49 50

000
ASUS43 KLSX 030110
RWRMO

WEATHER SUMMARY FOR MISSOURI
NATIONAL WEATHER SERVICE SPRINGFIELD MO
800 PM CDT WED SEP 02 2015

NOTE: "FAIR" INDICATES FEW OR NO CLOUDS BELOW 12,000 FEET WITH NO
       SIGNIFICANT WEATHER AND/OR OBSTRUCTIONS TO VISIBILITY.
       CURRENT SKY AND/OR WEATHER CONDITIONS ARE NOT AVAILABLE FOR
       CHILLICOTHE AND FARMINGTON.

MOZ001>031-035>038-043-044-053-054-030200-
...NORTHERN AND WESTERN MISSOURI...

CITY           SKY/WX    TMP DP  RH WIND       PRES   REMARKS
KANSAS CTY INT PTCLDY    79  69  71 S9        29.92S
KANSAS C DTWN  CLEAR     83  68  60 S9        29.91S
LEE`S SUMMIT   CLEAR     82  67  60 S8        29.94S
ST JOSEPH      CLEAR     80  70  71 S9        29.89S
CHILLICOTHE      N/A     81  71  71 SE3       29.93S
KIRKSVILLE     PTCLDY    77  68  73 S6        29.97R

$$
MOZ066>068-077>081-088>096-101>105-030200-
...SOUTHWEST MISSOURI...

CITY           SKY/WX    TMP DP  RH WIND       PRES   REMARKS
SPRINGFIELD    CLEAR     80  69  69 S3        29.99S
JOPLIN         CLEAR     79  69  71 S6        29.97S

$$
MOZ032>034-039>042-045>050-055>058-069>072-030200-
...CENTRAL MISSOURI...

CITY           SKY/WX    TMP DP  RH WIND       PRES   REMARKS
COLUMBIA       CLEAR     80  69  69 SE7       29.98S
JEFFERSON CITY CLEAR     82  68  62 E5        29.96S
ROLLA          CLEAR     76  66  71 S5        30.00S
SEDALIA        CLEAR     79  68  69 S5        29.97S
OSAGE BEACH    CLEAR     81  64  57 SE5       29.99S

$$
MOZ051-052-059>065-030200-
...EAST CENTRAL MISSOURI...

CITY           SKY/WX    TMP DP  RH WIND       PRES   REMARKS
ST LOUIS INTL  MOCLDY    87  67  51 CALM      29.99S HX  90
SPIRIT OF STL  FAIR      79  74  84 CALM      29.98R
ST CHARLES     PTCLDY    81  70  69 CALM      29.97S

$$
MOZ072>076-082>087-097>100-106>115-030200-
...SOUTH CENTRAL AND SOUTHEAST MISSOURI...

CITY           SKY/WX    TMP DP  RH WIND       PRES   REMARKS
CAPE GIRARDEAU CLEAR     79  70  74 S5        29.98S
FARMINGTON     MOCLDY    77  72  83 CALM      30.04S
POPLAR BLUFF   PTCLDY    77  73  87 CALM      29.97S
WEST PLAINS    PTCLDY    80  67  64 SE3       30.03S

$$



USA.gov is the U.S. government's official web portal to all federal, state and local government web resources and services.